FENGYUN 1C DEB

Satellite information

Favourite Embed

Satellite Type and Status

DEBRISIN ORBIT

Key statistics

Satellite FENGYUN 1C DEB at a glance.

Uptime

9716

Days in orbit

Revolutions

≈ 14.2

Per day

Orbit

SSO

Sun Synchronous Orbit

Inclination

98.5

Latest

Satellite identification and parameters

Extended collection of information and parameters for FENGYUN 1C DEB.

Object identification

Identified? True

Debris? True

Object name: FENGYUN 1C DEB

International designator: 1999-025EYU

Object number (NORAD): 46439

Object ID (CCSDS): 46439

Country: PEOPLES REPUBLIC OF CHINA (PRC)

Current information (Y/N): Y

RCS size: SMALL

Orbital parameters

Period: 101.265 minutes

Inclination: 98.52 deg

SMA: 7196.688 km

Apoapsis: 904.867 km

Periapsis: 732.239 km

RAAN: 251.9719 deg

Eccentricy: 0.01199353

Argument of periapsis: 293.4456 deg

Mean anomaly: 65.4151 deg

Mean motion: 14.22013532 rev/day

Mean motion (dot): 0.00000648 rev/day2

B* drag term: 0.0002907538 1/REarth

Two-line elements (TLE)

Creation date: Sept. 19, 2025, 10:06 a.m.

Reference frame: TEME

Reference center: EARTH

Epoch: Sept. 19, 2025, 5:17 a.m. UTC

TLE line 0: 0 FENGYUN 1C DEB

TLE line 1: 1 46439U 99025EYU 25262.22031606 .00000648 00000-0 29075-3 0 9992

TLE line 2: 2 46439 98.5200 251.9719 0119935 293.4456 65.4151 14.22013532591636

Live tracking on map

Real-time ground track for satellite FENGYUN 1C DEB.

In-orbit conjunctions

A list of the most updated potential collisions computed for object FENGYUN 1C DEB.

Target Orbit TCA Probability of collision Miss distance Type
COSMOS 985 DEB LEO 2025-07-06 06:18:59 0.000158079 134.0 (m) DEBRIS

Associated space launch

Chinese polar orbiting meteorological satellite

FENGYUN 1C DEB was lifted into orbit during the mission ‘Long March 4B | Feng Yun 1C’, on board a Long March 4B space rocket.

The launch took place on May 10, 1999, 1:33 a.m. from Launch Complex 7.

For more information about the launch, click the button.

Launch to space Long March 4B | Feng Yun 1C
Long March 4B | Feng Yun 1C

Agency: N/A

Status: Launch Successful

Launch date: May 10, 1999, 1:33 a.m. UTC

Rocket: Long March 4B

Launch pad: Launch Complex 7

Location: Taiyuan Satellite Launch Center, People's Republic of China

...

Latest news about this satellite

There are no fresh news available about this satellite. Check back as we update our databases every day.


Newsletter sign-up

Weekly statistics, charts and insights to help you stay on top of the space industry.